EZY35HU LTBS-EGNT

Flight info

Callsign EZY35HU
Flight time 4h 18m
Altitude 36000
Route KEKIK UT476 YOYYO UN618 IMR UN128 RIKSO DCT LMO DCT EVIVI DCT OKANA DCT IRGOR DCT TONDO DCT BEGLA DCT FMD DCT DITIS DCT VARIK/N0443F380 DCT KATCE DCT RKN DCT PREXA L602 NALAX L46 RIMTO
Aircraft A320/M-SDE3FGHIRWY/LB1

Departure

Time 2026-05-05 11:13
Airport Dalaman International Airport (LTBS)

Arrival

Time 2026-05-05 15:31
Airport Newcastle International Airport (EGNT)
Time Latitude Longitude Altitude Speed Heading
2026-05-05 10:41 36.72325 28.79064 39 ft 0 kts 285°
2026-05-05 10:59 36.72322 28.79077 13 ft 4 kts 285°
2026-05-05 11:00 36.72316 28.79106 13 ft 1 kts 285°
2026-05-05 11:00 36.72307 28.79133 13 ft 4 kts 311°
2026-05-05 11:00 36.72288 28.79148 15 ft 4 kts
2026-05-05 11:00 36.72267 28.79142 15 ft 1 kts 15°
2026-05-05 11:05 36.72269 28.79142 15 ft 1 kts 15°
2026-05-05 11:06 36.72280 28.79146 13 ft 2 kts 15°
2026-05-05 11:06 36.72303 28.79154 12 ft 6 kts 15°
2026-05-05 11:06 36.72369 28.79176 12 ft 13 kts 15°
2026-05-05 11:06 36.72448 28.79204 12 ft 11 kts 15°
2026-05-05 11:07 36.72516 28.79228 12 ft 10 kts 15°
2026-05-05 11:07 36.72575 28.79248 12 ft 8 kts 15°
2026-05-05 11:07 36.72624 28.79265 12 ft 7 kts 15°
2026-05-05 11:07 36.72676 28.79288 12 ft 7 kts 33°
2026-05-05 11:08 36.72690 28.79337 12 ft 5 kts 98°
2026-05-05 11:08 36.72682 28.79377 12 ft 5 kts 104°
2026-05-05 11:08 36.72666 28.79449 12 ft 9 kts 105°
2026-05-05 11:08 36.72651 28.79519 12 ft 8 kts 105°
2026-05-05 11:09 36.72643 28.79556 12 ft 0 kts 105°
2026-05-05 11:09 36.72642 28.79558 12 ft 2 kts 105°
2026-05-05 11:10 36.72632 28.79605 12 ft 8 kts 105°
2026-05-05 11:10 36.72617 28.79667 12 ft 7 kts 107°
2026-05-05 11:10 36.72604 28.79687 12 ft 2 kts 159°
2026-05-05 11:10 36.72585 28.79683 12 ft 3 kts 195°
2026-05-05 11:11 36.72577 28.79680 12 ft 0 kts 195°
2026-05-05 11:12 36.72490 28.79650 12 ft 40 kts 195°
2026-05-05 11:12 36.72001 28.79483 12 ft 103 kts 195°
2026-05-05 11:12 36.71155 28.79197 14 ft 150 kts 196°
2026-05-05 11:12 36.70126 28.78829 538 ft 154 kts 199°
2026-05-05 11:13 36.69075 28.78466 1171 ft 157 kts 198°
2026-05-05 11:13 36.68001 28.78096 1759 ft 163 kts 199°
2026-05-05 11:13 36.66896 28.77708 2338 ft 166 kts 200°
2026-05-05 11:13 36.65778 28.77310 2898 ft 168 kts 200°
2026-05-05 11:14 36.64635 28.76909 3342 ft 178 kts 200°
2026-05-05 11:14 36.63406 28.76384 3599 ft 196 kts 211°
2026-05-05 11:14 36.62526 28.75090 3932 ft 201 kts 256°
2026-05-05 11:14 36.62538 28.73409 4377 ft 199 kts 290°
2026-05-05 11:15 36.62950 28.71745 4863 ft 205 kts 290°
2026-05-05 11:15 36.63348 28.70034 5397 ft 207 kts 288°
2026-05-05 11:15 36.63733 28.68298 5922 ft 211 kts 288°
2026-05-05 11:15 36.64133 28.66466 6159 ft 230 kts 288°
2026-05-05 11:16 36.64575 28.64434 6354 ft 256 kts 289°
2026-05-05 11:16 36.65085 28.62219 6775 ft 272 kts 293°
2026-05-05 11:16 36.65949 28.60116 7489 ft 273 kts 308°
2026-05-05 11:16 36.67197 28.58387 8270 ft 272 kts 323°
2026-05-05 11:17 36.68681 28.56903 9048 ft 275 kts 324°
2026-05-05 11:17 36.70188 28.55406 9827 ft 279 kts 324°
2026-05-05 11:17 36.71727 28.53878 10349 ft 292 kts 324°
2026-05-05 11:17 36.73379 28.52240 10538 ft 315 kts 323°
2026-05-05 11:18 36.75138 28.50490 10876 ft 330 kts 323°
2026-05-05 11:18 36.76964 28.48719 11500 ft 334 kts 327°
2026-05-05 11:18 36.79008 28.47344 12195 ft 335 kts 339°
2026-05-05 11:18 36.81206 28.46466 12861 ft 337 kts 344°
2026-05-05 11:19 36.83473 28.45649 13556 ft 341 kts 344°
2026-05-05 11:19 36.85758 28.44827 14147 ft 343 kts 343°
2026-05-05 11:19 36.88053 28.44002 14623 ft 344 kts 343°
2026-05-05 11:19 36.90358 28.43167 15081 ft 347 kts 343°
2026-05-05 11:20 36.92672 28.42325 15330 ft 346 kts 343°
2026-05-05 11:20 36.94982 28.41482 15574 ft 346 kts 343°
2026-05-05 11:20 36.97294 28.40639 15821 ft 347 kts 343°
2026-05-05 11:20 36.99583 28.39804 15985 ft 348 kts 343°
2026-05-05 11:21 37.01918 28.38948 16489 ft 351 kts 342°
2026-05-05 11:21 37.04225 28.37953 17122 ft 352 kts 334°
2026-05-05 11:21 37.06304 28.36338 17692 ft 353 kts 321°
2026-05-05 11:21 37.08022 28.34122 18207 ft 357 kts 307°
2026-05-05 11:22 37.09254 28.31416 18727 ft 361 kts 294°
2026-05-05 11:22 37.10066 28.28424 19238 ft 364 kts 290°
2026-05-05 11:22 37.10852 28.25404 19730 ft 366 kts 290°
2026-05-05 11:22 37.11649 28.22367 20210 ft 368 kts 290°
2026-05-05 11:23 37.12444 28.19352 20657 ft 371 kts 290°
2026-05-05 11:23 37.13255 28.16275 21114 ft 373 kts 290°
2026-05-05 11:23 37.14066 28.13178 21570 ft 375 kts 290°
2026-05-05 11:23 37.14879 28.10059 22024 ft 378 kts 290°
2026-05-05 11:24 37.15776 28.06957 22458 ft 379 kts 297°
2026-05-05 11:24 37.17269 28.04244 22849 ft 381 kts 314°
2026-05-05 11:24 37.19344 28.02150 23278 ft 385 kts 323°
2026-05-05 11:24 37.21535 28.00209 23681 ft 388 kts 323°
2026-05-05 11:25 37.23753 27.98256 24026 ft 390 kts 323°
2026-05-05 11:25 37.25948 27.96323 24391 ft 392 kts 323°
2026-05-05 11:25 37.28182 27.94351 24751 ft 393 kts 323°
2026-05-05 11:25 37.30425 27.92363 25109 ft 395 kts 323°
2026-05-05 11:26 37.32671 27.90364 25455 ft 397 kts 323°
2026-05-05 11:26 37.34929 27.88355 25808 ft 399 kts 323°
2026-05-05 11:26 37.37199 27.86337 26157 ft 400 kts 323°
2026-05-05 11:26 37.39477 27.84305 26492 ft 402 kts 323°
2026-05-05 11:27 37.41759 27.82265 26832 ft 404 kts 323°
2026-05-05 11:27 37.44054 27.80209 27159 ft 406 kts 322°
2026-05-05 11:27 37.46328 27.78173 27492 ft 407 kts 322°
2026-05-05 11:27 37.48639 27.76105 27813 ft 409 kts 322°
2026-05-05 11:28 37.50967 27.74022 28147 ft 411 kts 323°
2026-05-05 11:28 37.53302 27.71937 28459 ft 413 kts 323°
2026-05-05 11:28 37.55649 27.69840 28758 ft 414 kts 323°
2026-05-05 11:28 37.58006 27.67733 29043 ft 416 kts 322°
2026-05-05 11:29 37.60365 27.65615 29322 ft 418 kts 322°
2026-05-05 11:29 37.62736 27.63482 29605 ft 419 kts 322°
2026-05-05 11:29 37.65082 27.61369 29875 ft 421 kts 322°
2026-05-05 11:29 37.67467 27.59221 30134 ft 422 kts 322°
2026-05-05 11:30 37.69860 27.57067 30360 ft 424 kts 322°
2026-05-05 11:30 37.72264 27.54900 30611 ft 424 kts 322°
2026-05-05 11:30 37.74663 27.52736 30957 ft 423 kts 322°
2026-05-05 11:30 37.77048 27.50583 31303 ft 421 kts 322°
2026-05-05 11:31 37.79436 27.48428 31610 ft 421 kts 323°
2026-05-05 11:31 37.81809 27.46282 31923 ft 419 kts 323°
2026-05-05 11:31 37.84178 27.44134 32248 ft 418 kts 323°
2026-05-05 11:31 37.86506 27.42021 32579 ft 417 kts 323°
2026-05-05 11:32 37.88860 27.39887 32915 ft 415 kts 323°
2026-05-05 11:32 37.91206 27.37766 33248 ft 414 kts 323°
2026-05-05 11:32 37.93542 27.35649 33592 ft 413 kts 323°
2026-05-05 11:32 37.95874 27.33533 33914 ft 411 kts 323°
2026-05-05 11:33 37.98194 27.31426 34189 ft 410 kts 323°
2026-05-05 11:33 38.00508 27.29322 34448 ft 409 kts 323°
2026-05-05 11:33 38.02818 27.27217 34696 ft 409 kts 323°
2026-05-05 11:33 38.05129 27.25114 34907 ft 409 kts 323°
2026-05-05 11:34 38.07410 27.23038 35111 ft 409 kts 323°
2026-05-05 11:34 38.09721 27.20927 35314 ft 409 kts 323°
2026-05-05 11:34 38.12031 27.18811 35522 ft 409 kts 323°
2026-05-05 11:34 38.14341 27.16691 35714 ft 409 kts 323°
2026-05-05 11:35 38.16645 27.14575 35934 ft 409 kts 323°
2026-05-05 11:35 38.18949 27.12461 36051 ft 408 kts 323°
2026-05-05 11:35 38.21254 27.10351 36056 ft 408 kts 323°
2026-05-05 11:36 38.25855 27.06147 36055 ft 407 kts 323°
2026-05-05 11:36 38.30418 27.01960 36056 ft 407 kts 323°
2026-05-05 11:37 38.34792 26.97374 36056 ft 408 kts 319°
2026-05-05 11:37 38.39083 26.92628 36056 ft 409 kts 319°
2026-05-05 11:38 38.43378 26.87880 36058 ft 409 kts 319°
2026-05-05 11:38 38.47643 26.83159 36055 ft 409 kts 319°
2026-05-05 11:39 38.51936 26.78406 36064 ft 408 kts 319°
2026-05-05 11:39 38.56221 26.73642 36071 ft 408 kts 319°
2026-05-05 11:40 38.60507 26.68874 36085 ft 408 kts 319°
2026-05-05 11:40 38.64764 26.64132 36083 ft 408 kts 319°
2026-05-05 11:41 38.69046 26.59355 36078 ft 409 kts 319°
2026-05-05 11:41 38.73328 26.54559 36068 ft 409 kts 319°
2026-05-05 11:42 38.77602 26.49770 36082 ft 408 kts 319°
2026-05-05 11:42 38.81847 26.45007 36086 ft 408 kts 319°
2026-05-05 11:43 38.86136 26.40239 36085 ft 408 kts 320°
2026-05-05 11:43 38.90486 26.35557 36097 ft 408 kts 320°
2026-05-05 11:44 38.94850 26.30891 36095 ft 408 kts 320°
2026-05-05 11:44 38.99201 26.26198 36094 ft 408 kts 320°
2026-05-05 11:45 39.03506 26.21517 36093 ft 408 kts 320°
2026-05-05 11:45 39.07831 26.16801 36096 ft 407 kts 320°
2026-05-05 11:46 39.12157 26.12090 36095 ft 407 kts 320°
2026-05-05 11:46 39.16469 26.07385 36107 ft 406 kts 320°
2026-05-05 11:47 39.20755 26.02705 36094 ft 406 kts 320°
2026-05-05 11:47 39.25064 25.97990 36090 ft 406 kts 320°
2026-05-05 11:48 39.31521 25.90907 36082 ft 406 kts 320°
2026-05-05 11:48 39.35815 25.86185 36087 ft 405 kts 320°
2026-05-05 11:49 39.40072 25.81490 36086 ft 405 kts 320°
2026-05-05 11:49 39.44356 25.76758 36091 ft 405 kts 320°
2026-05-05 11:50 39.48644 25.72029 36091 ft 405 kts 320°
2026-05-05 11:50 39.52932 25.67293 36091 ft 405 kts 320°
2026-05-05 11:51 39.57186 25.62578 36076 ft 405 kts 320°
2026-05-05 11:51 39.61466 25.57824 36087 ft 405 kts 320°
2026-05-05 11:52 39.65737 25.53066 36097 ft 405 kts 320°
2026-05-05 11:52 39.70010 25.48303 36101 ft 405 kts 320°
2026-05-05 11:53 39.74276 25.43542 36105 ft 404 kts 320°
2026-05-05 11:53 39.78511 25.38818 36099 ft 404 kts 320°
2026-05-05 11:54 39.82766 25.34049 36094 ft 404 kts 320°
2026-05-05 11:54 39.87014 25.29273 36084 ft 403 kts 320°
2026-05-05 11:55 39.91257 25.24505 36086 ft 402 kts 320°
2026-05-05 11:55 39.95437 25.19735 36085 ft 402 kts 319°
2026-05-05 11:56 39.99592 25.14856 36085 ft 402 kts 319°
2026-05-05 11:56 40.03741 25.09972 36080 ft 402 kts 319°
2026-05-05 11:57 40.07899 25.05099 36080 ft 402 kts 319°
2026-05-05 11:57 40.12031 25.00257 36055 ft 402 kts 319°
2026-05-05 11:58 40.16186 24.95375 36066 ft 402 kts 319°
2026-05-05 11:58 40.20339 24.90485 36074 ft 402 kts 319°
2026-05-05 11:59 40.24488 24.85594 36077 ft 401 kts 319°
2026-05-05 11:59 40.28605 24.80731 36083 ft 401 kts 319°
2026-05-05 12:00 40.32752 24.75829 36082 ft 402 kts 319°
2026-05-05 12:00 40.36904 24.70913 36084 ft 402 kts 319°
2026-05-05 12:01 40.41055 24.65985 36088 ft 403 kts 319°
2026-05-05 12:01 40.45179 24.61080 36090 ft 403 kts 319°
2026-05-05 12:02 40.49327 24.56140 36090 ft 403 kts 319°
2026-05-05 12:02 40.53470 24.51190 36087 ft 402 kts 319°
2026-05-05 12:03 40.57608 24.46236 36084 ft 403 kts 319°
2026-05-05 12:03 40.61752 24.41279 36079 ft 403 kts 319°
2026-05-05 12:04 40.65869 24.36345 36054 ft 403 kts 319°
2026-05-05 12:04 40.70012 24.31366 36064 ft 403 kts 318°
2026-05-05 12:05 40.74150 24.26378 36071 ft 403 kts 318°
2026-05-05 12:05 40.78289 24.21388 36068 ft 403 kts 318°
2026-05-05 12:06 40.82396 24.16426 36068 ft 403 kts 318°
2026-05-05 12:06 40.86530 24.11431 36059 ft 403 kts 319°
2026-05-05 12:07 40.90659 24.06430 36038 ft 403 kts 318°
2026-05-05 12:07 40.94785 24.01420 36044 ft 403 kts 318°
2026-05-05 12:08 40.98880 23.96442 36046 ft 402 kts 318°
2026-05-05 12:08 41.02995 23.91417 36045 ft 402 kts 318°
2026-05-05 12:09 41.07107 23.86392 36036 ft 402 kts 318°
2026-05-05 12:09 41.11220 23.81353 36030 ft 402 kts 318°
2026-05-05 12:10 41.15303 23.76348 36025 ft 403 kts 318°
2026-05-05 12:10 41.19421 23.71303 36014 ft 403 kts 318°
2026-05-05 12:11 41.23534 23.66245 36024 ft 403 kts 318°
2026-05-05 12:11 41.27645 23.61179 36027 ft 403 kts 318°
2026-05-05 12:12 41.31727 23.56145 36031 ft 403 kts 318°
2026-05-05 12:12 41.35832 23.51071 36048 ft 403 kts 317°
2026-05-05 12:13 41.40015 23.46098 36046 ft 403 kts 325°
2026-05-05 12:13 41.44922 23.42518 36023 ft 403 kts 333°
2026-05-05 12:14 41.49925 23.39270 36033 ft 403 kts 333°
2026-05-05 12:14 41.54959 23.36001 36045 ft 402 kts 333°
2026-05-05 12:15 41.59985 23.32716 36050 ft 402 kts 333°
2026-05-05 12:15 41.65005 23.29413 36054 ft 402 kts 333°
2026-05-05 12:16 41.70034 23.26112 36050 ft 403 kts 333°
2026-05-05 12:16 41.75027 23.22824 36057 ft 403 kts 333°
2026-05-05 12:17 41.80059 23.19511 36061 ft 403 kts 333°
2026-05-05 12:17 41.85093 23.16199 36064 ft 403 kts 333°
2026-05-05 12:18 41.90131 23.12876 36062 ft 404 kts 333°
2026-05-05 12:18 41.95135 23.09568 36052 ft 404 kts 333°
2026-05-05 12:19 42.00171 23.06228 36055 ft 403 kts 333°
2026-05-05 12:19 42.05201 23.02877 36065 ft 404 kts 333°
2026-05-05 12:20 42.10238 22.99527 36063 ft 404 kts 333°
2026-05-05 12:20 42.15248 22.96194 36064 ft 404 kts 333°
2026-05-05 12:21 42.20290 22.92828 36065 ft 404 kts 333°
2026-05-05 12:21 42.25325 22.89450 36065 ft 404 kts 333°
2026-05-05 12:22 42.30361 22.86072 36067 ft 404 kts 333°
2026-05-05 12:22 42.35371 22.82708 36065 ft 405 kts 333°
2026-05-05 12:23 42.40419 22.79314 36064 ft 405 kts 333°
2026-05-05 12:23 42.45463 22.75915 36043 ft 405 kts 333°
2026-05-05 12:24 42.50514 22.72511 36044 ft 406 kts 333°
2026-05-05 12:24 42.55535 22.69122 36048 ft 406 kts 333°
2026-05-05 12:25 42.60576 22.65698 36052 ft 406 kts 332°
2026-05-05 12:25 42.65628 22.62268 36054 ft 406 kts 333°
2026-05-05 12:26 42.70685 22.58835 36060 ft 406 kts 332°
2026-05-05 12:26 42.75740 22.55394 36058 ft 407 kts 332°
2026-05-05 12:27 42.80761 22.51959 36055 ft 407 kts 332°
2026-05-05 12:27 42.85753 22.48341 36045 ft 406 kts 326°
2026-05-05 12:28 42.90498 22.44148 36049 ft 407 kts 326°
2026-05-05 12:28 42.95238 22.39943 36057 ft 406 kts 327°
2026-05-05 12:29 42.99953 22.35764 36047 ft 407 kts 327°
2026-05-05 12:29 43.04708 22.31561 36033 ft 407 kts 326°
2026-05-05 12:30 43.09466 22.27341 36035 ft 408 kts 326°
2026-05-05 12:30 43.14223 22.23104 36038 ft 408 kts 326°
2026-05-05 12:31 43.18975 22.18864 36041 ft 408 kts 326°
2026-05-05 12:31 43.23701 22.14640 36031 ft 409 kts 326°
2026-05-05 12:32 43.28468 22.10371 36014 ft 409 kts 326°
2026-05-05 12:32 43.33245 22.06099 36016 ft 410 kts 326°
2026-05-05 12:33 43.38023 22.01816 36020 ft 410 kts 326°
2026-05-05 12:33 43.42764 21.97543 36030 ft 411 kts 326°
2026-05-05 12:34 43.47548 21.93215 36031 ft 412 kts 326°
2026-05-05 12:34 43.52332 21.88878 36038 ft 412 kts 326°
2026-05-05 12:35 43.57127 21.84537 36039 ft 412 kts 326°
2026-05-05 12:35 43.61918 21.80196 36043 ft 412 kts 326°
2026-05-05 12:36 43.66676 21.75871 36050 ft 412 kts 326°
2026-05-05 12:36 43.71464 21.71511 36045 ft 412 kts 326°
2026-05-05 12:37 43.76259 21.67133 36029 ft 413 kts 326°
2026-05-05 12:37 43.81057 21.62749 36027 ft 413 kts 326°
2026-05-05 12:38 43.85822 21.58382 36028 ft 414 kts 326°
2026-05-05 12:38 43.90623 21.53975 36036 ft 414 kts 326°
2026-05-05 12:39 43.95425 21.49563 36021 ft 414 kts 326°
2026-05-05 12:39 44.00230 21.45132 36011 ft 415 kts 326°
2026-05-05 12:40 44.05040 21.40688 36015 ft 415 kts 326°
2026-05-05 12:40 44.09825 21.36269 36010 ft 416 kts 326°
2026-05-05 12:41 44.14638 21.31814 36018 ft 416 kts 326°
2026-05-05 12:41 44.19452 21.27334 36005 ft 416 kts 325°
2026-05-05 12:42 44.23454 21.23605 36004 ft 416 kts 325°
2026-05-05 12:42 44.28274 21.19110 36002 ft 417 kts 325°
2026-05-05 12:43 44.33881 21.13881 35999 ft 417 kts 325°
2026-05-05 12:43 44.38702 21.09369 36007 ft 417 kts 325°
2026-05-05 12:44 44.42708 21.05608 35996 ft 418 kts 325°
2026-05-05 12:44 44.47538 21.01069 35994 ft 418 kts 325°
2026-05-05 12:45 44.53156 20.95774 35992 ft 419 kts 325°
2026-05-05 12:45 44.57208 20.91956 35996 ft 419 kts 325°
2026-05-05 12:46 44.62009 20.87424 35998 ft 419 kts 325°
2026-05-05 12:46 44.66841 20.82834 35999 ft 419 kts 325°
2026-05-05 12:47 44.71680 20.78239 35991 ft 420 kts 325°
2026-05-05 12:47 44.76439 20.73499 35986 ft 420 kts 322°
2026-05-05 12:48 44.81080 20.68573 35987 ft 421 kts 322°
2026-05-05 12:48 44.85747 20.63594 35980 ft 421 kts 322°
2026-05-05 12:49 44.90442 20.58653 35983 ft 421 kts 322°
2026-05-05 12:49 44.95155 20.53720 35982 ft 422 kts 322°
2026-05-05 12:50 44.99837 20.48806 35988 ft 422 kts 322°
2026-05-05 12:50 45.04546 20.43845 35981 ft 422 kts 322°
2026-05-05 12:51 45.09249 20.38867 35979 ft 422 kts 322°
2026-05-05 12:51 45.13958 20.33878 35980 ft 423 kts 322°
2026-05-05 12:52 45.18640 20.28918 35980 ft 423 kts 322°
2026-05-05 12:52 45.23349 20.23905 35974 ft 423 kts 322°
2026-05-05 12:53 45.28056 20.18875 35980 ft 424 kts 322°
2026-05-05 12:53 45.32768 20.13839 35976 ft 424 kts 322°
2026-05-05 12:54 45.39836 20.06268 35975 ft 424 kts 321°
2026-05-05 12:55 45.44518 20.01241 35970 ft 425 kts 321°
2026-05-05 12:55 45.49236 19.96160 35969 ft 425 kts 321°
2026-05-05 12:56 45.53954 19.91066 35973 ft 426 kts 321°
2026-05-05 12:56 45.58677 19.85967 35970 ft 426 kts 321°
2026-05-05 12:57 45.63362 19.80896 35967 ft 426 kts 321°
2026-05-05 12:57 45.68081 19.75767 35965 ft 426 kts 321°
2026-05-05 12:58 45.72802 19.70620 35962 ft 427 kts 321°
2026-05-05 12:58 45.77529 19.65459 35959 ft 427 kts 321°
2026-05-05 12:59 45.82260 19.60293 35960 ft 428 kts 321°
2026-05-05 12:59 45.86962 19.55153 35961 ft 428 kts 321°
2026-05-05 13:00 45.94055 19.47360 35960 ft 428 kts 321°
2026-05-05 13:01 46.03513 19.36922 35963 ft 429 kts 321°
2026-05-05 13:01 46.08150 19.31622 35961 ft 428 kts 319°
2026-05-05 13:02 46.12707 19.26089 35958 ft 428 kts 318°
2026-05-05 13:02 46.17245 19.20513 35959 ft 429 kts 318°
2026-05-05 13:03 46.21809 19.14959 35955 ft 429 kts 319°
2026-05-05 13:03 46.26359 19.09457 35954 ft 430 kts 318°
2026-05-05 13:04 46.30941 19.03904 35951 ft 430 kts 318°
2026-05-05 13:04 46.35518 18.98340 35951 ft 430 kts 318°
2026-05-05 13:05 46.40086 18.92766 35948 ft 430 kts 318°
2026-05-05 13:05 46.44654 18.87173 35956 ft 430 kts 318°
2026-05-05 13:06 46.49188 18.81612 35951 ft 430 kts 318°
2026-05-05 13:06 46.53753 18.75993 35950 ft 430 kts 318°
2026-05-05 13:07 46.58317 18.70367 35944 ft 430 kts 317°
2026-05-05 13:07 46.62874 18.64724 35944 ft 430 kts 317°
2026-05-05 13:08 46.67407 18.59116 35943 ft 430 kts 318°
2026-05-05 13:08 46.71969 18.53468 35950 ft 431 kts 317°
2026-05-05 13:09 46.76528 18.47802 35944 ft 431 kts 317°
2026-05-05 13:09 46.81089 18.42131 35945 ft 431 kts 317°
2026-05-05 13:10 46.85637 18.36446 35938 ft 431 kts 317°
2026-05-05 13:10 46.90185 18.30738 35939 ft 431 kts 317°
2026-05-05 13:11 46.94697 18.25072 35943 ft 430 kts 317°
2026-05-05 13:11 46.99237 18.19373 35946 ft 430 kts 317°
2026-05-05 13:12 47.03771 18.13655 35939 ft 430 kts 317°
2026-05-05 13:12 47.08297 18.07932 35930 ft 430 kts 317°
2026-05-05 13:13 47.12801 18.02228 35920 ft 431 kts 317°
2026-05-05 13:13 47.17336 17.96477 35932 ft 430 kts 317°
2026-05-05 13:14 47.21855 17.90730 35927 ft 430 kts 317°
2026-05-05 13:14 47.26365 17.84971 35939 ft 429 kts 316°
2026-05-05 13:15 47.30836 17.79247 35923 ft 429 kts 316°
2026-05-05 13:15 47.35343 17.73486 35912 ft 429 kts 315°
2026-05-05 13:16 47.39845 17.67703 35916 ft 429 kts 315°
2026-05-05 13:16 47.44344 17.61905 35908 ft 430 kts 316°
2026-05-05 13:17 47.48816 17.56130 35905 ft 430 kts 316°
2026-05-05 13:17 47.53316 17.50306 35908 ft 430 kts 315°
2026-05-05 13:18 47.57813 17.44477 35895 ft 430 kts 316°
2026-05-05 13:18 47.62305 17.38635 35898 ft 429 kts 315°
2026-05-05 13:19 47.66757 17.32828 35888 ft 429 kts 315°
2026-05-05 13:19 47.71234 17.26990 35875 ft 428 kts 315°
2026-05-05 13:20 47.75713 17.21133 35860 ft 429 kts 315°
2026-05-05 13:20 47.80184 17.15269 35851 ft 429 kts 316°
2026-05-05 13:21 47.84446 17.09074 35832 ft 427 kts 308°
2026-05-05 13:21 47.88260 17.02346 35834 ft 428 kts 308°
2026-05-05 13:22 47.92111 16.95569 35827 ft 429 kts 308°
2026-05-05 13:22 47.95966 16.88784 35831 ft 429 kts 308°
2026-05-05 13:23 47.99812 16.81981 35814 ft 429 kts 307°
2026-05-05 13:23 48.03650 16.75166 35812 ft 428 kts 307°
2026-05-05 13:24 48.07450 16.68393 35809 ft 428 kts 307°
2026-05-05 13:24 48.11272 16.61571 35818 ft 428 kts 307°
2026-05-05 13:25 48.15022 16.54663 35814 ft 427 kts 306°
2026-05-05 13:25 48.18723 16.47701 35812 ft 427 kts 306°
2026-05-05 13:26 48.22399 16.40779 35808 ft 428 kts 306°
2026-05-05 13:26 48.26106 16.33821 35792 ft 428 kts 306°
2026-05-05 13:27 48.29829 16.26850 35775 ft 428 kts 306°
2026-05-05 13:27 48.33549 16.19852 35762 ft 429 kts 306°
2026-05-05 13:28 48.37243 16.12895 35766 ft 429 kts 306°
2026-05-05 13:28 48.40955 16.05871 35776 ft 429 kts 306°
2026-05-05 13:29 48.44660 15.98824 35758 ft 429 kts 306°
2026-05-05 13:29 48.48361 15.91777 35756 ft 429 kts 306°
2026-05-05 13:30 48.52064 15.84719 35759 ft 429 kts 306°
2026-05-05 13:30 48.55763 15.77656 35759 ft 429 kts 306°
2026-05-05 13:31 48.59427 15.70623 35761 ft 429 kts 305°
2026-05-05 13:31 48.63110 15.63540 35759 ft 429 kts 305°
2026-05-05 13:32 48.66793 15.56439 35769 ft 429 kts 305°
2026-05-05 13:32 48.70472 15.49337 35776 ft 429 kts 305°
2026-05-05 13:33 48.74122 15.42278 35782 ft 428 kts 305°
2026-05-05 13:33 48.77785 15.35156 35773 ft 428 kts 305°
2026-05-05 13:34 48.81444 15.28018 35767 ft 428 kts 305°
2026-05-05 13:34 48.85099 15.20873 35761 ft 428 kts 305°
2026-05-05 13:35 48.88726 15.13766 35762 ft 429 kts 305°
2026-05-05 13:35 48.92410 15.06636 35768 ft 429 kts 306°
2026-05-05 13:36 48.96195 14.99610 35760 ft 430 kts 307°
2026-05-05 13:36 48.99987 14.92580 35764 ft 430 kts 306°
2026-05-05 13:37 49.03760 14.85515 35763 ft 430 kts 306°
2026-05-05 13:37 49.07484 14.78473 35757 ft 430 kts 306°
2026-05-05 13:38 49.11231 14.71375 35772 ft 430 kts 306°
2026-05-05 13:38 49.14973 14.64262 35766 ft 430 kts 306°
2026-05-05 13:39 49.18724 14.57144 35763 ft 430 kts 306°
2026-05-05 13:39 49.22461 14.50015 35763 ft 430 kts 306°
2026-05-05 13:40 49.26170 14.42920 35768 ft 430 kts 306°
2026-05-05 13:40 49.29900 14.35765 35785 ft 430 kts 305°
2026-05-05 13:41 49.33631 14.28605 35781 ft 430 kts 305°
2026-05-05 13:41 49.37347 14.21446 35781 ft 429 kts 305°
2026-05-05 13:42 49.41037 14.14301 35781 ft 429 kts 305°
2026-05-05 13:42 49.44749 14.07106 35779 ft 429 kts 305°
2026-05-05 13:43 49.48461 13.99911 35781 ft 430 kts 305°
2026-05-05 13:43 49.52166 13.92692 35782 ft 430 kts 304°
2026-05-05 13:44 49.55864 13.85447 35775 ft 431 kts 304°
2026-05-05 13:44 49.59545 13.78234 35778 ft 431 kts 304°
2026-05-05 13:45 49.63247 13.70975 35799 ft 431 kts 304°
2026-05-05 13:45 49.66944 13.63710 35805 ft 430 kts 304°
2026-05-05 13:46 49.70625 13.56435 35813 ft 430 kts 304°
2026-05-05 13:46 49.74300 13.49145 35813 ft 430 kts 304°
2026-05-05 13:47 49.77951 13.41900 35816 ft 430 kts 304°
2026-05-05 13:47 49.81622 13.34598 35809 ft 430 kts 304°
2026-05-05 13:48 49.85281 13.27280 35799 ft 429 kts 304°
2026-05-05 13:48 49.88940 13.19956 35790 ft 430 kts 304°
2026-05-05 13:49 49.92568 13.12676 35780 ft 429 kts 304°
2026-05-05 13:49 49.96209 13.05330 35809 ft 429 kts 304°
2026-05-05 13:50 49.99848 12.97982 35820 ft 429 kts 304°
2026-05-05 13:50 50.03490 12.90624 35828 ft 429 kts 303°
2026-05-05 13:51 50.07093 12.83302 35824 ft 429 kts 303°
2026-05-05 13:51 50.10716 12.75905 35828 ft 430 kts 303°
2026-05-05 13:52 50.14343 12.68490 35820 ft 430 kts 303°
2026-05-05 13:52 50.17975 12.61058 35815 ft 431 kts 303°
2026-05-05 13:53 50.21604 12.53628 35818 ft 430 kts 303°
2026-05-05 13:53 50.25199 12.46233 35818 ft 430 kts 302°
2026-05-05 13:54 50.28808 12.38761 35802 ft 431 kts 302°
2026-05-05 13:54 50.32434 12.31301 35802 ft 431 kts 303°
2026-05-05 13:55 50.36097 12.23849 35798 ft 432 kts 303°
2026-05-05 13:55 50.39756 12.16382 35815 ft 432 kts 303°
2026-05-05 13:56 50.43379 12.08938 35837 ft 432 kts 302°
2026-05-05 13:56 50.47014 12.01431 35831 ft 432 kts 302°
2026-05-05 13:57 50.50648 11.93916 35824 ft 432 kts 302°
2026-05-05 13:57 50.54279 11.86398 35820 ft 432 kts 302°
2026-05-05 13:58 50.57876 11.78916 35815 ft 432 kts 302°
2026-05-05 13:58 50.61502 11.71366 35813 ft 432 kts 302°
2026-05-05 13:59 50.66938 11.60015 35817 ft 433 kts 302°
2026-05-05 14:00 50.71744 11.49911 35814 ft 433 kts 302°
2026-05-05 14:00 50.75936 11.41062 35814 ft 433 kts 301°
2026-05-05 14:01 50.79537 11.33436 35833 ft 433 kts 301°
2026-05-05 14:01 50.83133 11.25820 35835 ft 432 kts 301°
2026-05-05 14:02 50.86696 11.18256 35855 ft 432 kts 301°
2026-05-05 14:02 50.90272 11.10611 35861 ft 432 kts 301°
2026-05-05 14:03 50.93848 11.02955 35864 ft 432 kts 301°
2026-05-05 14:03 50.97417 10.95284 35864 ft 432 kts 301°
2026-05-05 14:04 51.00958 10.87654 35873 ft 433 kts 301°
2026-05-05 14:04 51.04539 10.79949 35859 ft 434 kts 301°
2026-05-05 14:05 51.08113 10.72213 35846 ft 434 kts 301°
2026-05-05 14:05 51.11675 10.64474 35856 ft 433 kts 301°
2026-05-05 14:06 51.15232 10.56735 35849 ft 433 kts 301°
2026-05-05 14:06 51.18751 10.49049 35851 ft 432 kts 300°
2026-05-05 14:07 51.22283 10.41296 35830 ft 432 kts 300°
2026-05-05 14:07 51.25567 10.33317 35821 ft 425 kts 290°
2026-05-05 14:08 51.27888 10.24656 35938 ft 426 kts 287°
2026-05-05 14:08 51.29039 10.20290 36157 ft 427 kts 287°
2026-05-05 14:08 51.30181 10.15975 36387 ft 428 kts 288°
2026-05-05 14:09 51.31343 10.11601 36610 ft 428 kts 288°
2026-05-05 14:09 51.32503 10.07218 36862 ft 428 kts 287°
2026-05-05 14:09 51.33655 10.02844 37071 ft 428 kts 287°
2026-05-05 14:09 51.34806 9.98453 37293 ft 428 kts 287°
2026-05-05 14:10 51.35953 9.94067 37495 ft 428 kts 287°
2026-05-05 14:10 51.37098 9.89675 37719 ft 428 kts 287°
2026-05-05 14:10 51.38227 9.85335 37829 ft 428 kts 287°
2026-05-05 14:10 51.39370 9.80939 37834 ft 428 kts 287°
2026-05-05 14:11 51.41652 9.72151 37835 ft 426 kts 287°
2026-05-05 14:11 51.43915 9.63401 37838 ft 425 kts 287°
2026-05-05 14:12 51.46174 9.54623 37840 ft 427 kts 287°
2026-05-05 14:12 51.48427 9.45819 37839 ft 427 kts 287°
2026-05-05 14:13 51.50665 9.37058 37845 ft 427 kts 287°
2026-05-05 14:13 51.52915 9.28234 37848 ft 427 kts 287°
2026-05-05 14:14 51.55154 9.19390 37849 ft 427 kts 287°
2026-05-05 14:14 51.57387 9.10543 37856 ft 427 kts 287°
2026-05-05 14:15 51.59599 9.01741 37861 ft 427 kts 287°
2026-05-05 14:15 51.61825 8.92867 37866 ft 427 kts 287°
2026-05-05 14:16 51.64045 8.83994 37872 ft 428 kts 287°
2026-05-05 14:16 51.66251 8.75104 37878 ft 428 kts 287°
2026-05-05 14:17 51.68433 8.66244 37890 ft 429 kts 287°
2026-05-05 14:17 51.70625 8.57336 37877 ft 429 kts 287°
2026-05-05 14:18 51.72821 8.48405 37876 ft 428 kts 287°
2026-05-05 14:18 51.75007 8.39476 37889 ft 427 kts 287°
2026-05-05 14:19 51.77183 8.30567 37899 ft 426 kts 287°
2026-05-05 14:19 51.79325 8.21719 37907 ft 426 kts 287°
2026-05-05 14:20 51.81473 8.12803 37903 ft 426 kts 287°
2026-05-05 14:20 51.83613 8.03886 37897 ft 426 kts 287°
2026-05-05 14:21 51.85753 7.94947 37902 ft 426 kts 287°
2026-05-05 14:21 51.87893 7.85999 37903 ft 426 kts 287°
2026-05-05 14:22 51.90013 7.77110 37918 ft 426 kts 287°
2026-05-05 14:22 51.92137 7.68146 37914 ft 426 kts 287°
2026-05-05 14:23 51.94244 7.59163 37906 ft 426 kts 287°
2026-05-05 14:23 51.96343 7.50179 37906 ft 426 kts 287°
2026-05-05 14:24 51.98436 7.41241 37903 ft 427 kts 287°
2026-05-05 14:24 52.00532 7.32234 37915 ft 427 kts 287°
2026-05-05 14:25 52.02620 7.23215 37916 ft 427 kts 287°
2026-05-05 14:25 52.04703 7.14181 37911 ft 427 kts 287°
2026-05-05 14:26 52.06770 7.05199 37904 ft 427 kts 287°
2026-05-05 14:26 52.08842 6.96149 37916 ft 427 kts 287°
2026-05-05 14:27 52.10903 6.87095 37928 ft 427 kts 287°
2026-05-05 14:27 52.12958 6.78030 37898 ft 428 kts 287°
2026-05-05 14:28 52.15133 6.68987 37890 ft 430 kts 289°
2026-05-05 14:28 52.17495 6.60102 37892 ft 431 kts 290°
2026-05-05 14:29 52.19888 6.51149 37901 ft 431 kts 289°
2026-05-05 14:29 52.22218 6.42146 37901 ft 431 kts 289°
2026-05-05 14:30 52.24523 6.33115 37898 ft 432 kts 289°
2026-05-05 14:30 52.26833 6.24058 37901 ft 432 kts 289°
2026-05-05 14:31 52.29127 6.15040 37914 ft 433 kts 289°
2026-05-05 14:31 52.31431 6.05945 37910 ft 433 kts 289°
2026-05-05 14:32 52.33724 5.96836 37927 ft 434 kts 289°
2026-05-05 14:32 52.36019 5.87701 37929 ft 434 kts 289°
2026-05-05 14:33 52.38311 5.78553 37932 ft 434 kts 289°
2026-05-05 14:33 52.40578 5.69462 37936 ft 434 kts 289°
2026-05-05 14:34 52.42855 5.60309 37937 ft 434 kts 289°
2026-05-05 14:34 52.45121 5.51144 37937 ft 434 kts 289°
2026-05-05 14:35 52.47377 5.41968 37940 ft 434 kts 289°
2026-05-05 14:35 52.49625 5.32845 37934 ft 434 kts 289°
2026-05-05 14:36 52.51877 5.23642 37933 ft 435 kts 289°
2026-05-05 14:36 52.54110 5.14441 37940 ft 435 kts 289°
2026-05-05 14:37 52.56341 5.05203 37946 ft 435 kts 289°
2026-05-05 14:37 52.58554 4.96010 37967 ft 436 kts 289°
2026-05-05 14:38 52.60781 4.86735 37955 ft 436 kts 289°
2026-05-05 14:38 52.62998 4.77463 37952 ft 437 kts 289°
2026-05-05 14:39 52.65216 4.68150 37956 ft 437 kts 289°
2026-05-05 14:39 52.67414 4.58882 37961 ft 437 kts 289°
2026-05-05 14:40 52.69629 4.49556 37976 ft 438 kts 291°
2026-05-05 14:40 52.72782 4.40919 37975 ft 441 kts 302°
2026-05-05 14:41 52.76080 4.32414 37970 ft 439 kts 296°
2026-05-05 14:41 52.79063 4.23633 37975 ft 439 kts 296°
2026-05-05 14:42 52.82021 4.14895 37973 ft 439 kts 296°
2026-05-05 14:42 52.84988 4.06081 37972 ft 439 kts 296°
2026-05-05 14:43 52.87956 3.97252 37984 ft 438 kts 296°
2026-05-05 14:43 52.90914 3.88431 37982 ft 438 kts 296°
2026-05-05 14:44 52.93864 3.79588 37994 ft 438 kts 296°
2026-05-05 14:44 52.96787 3.70792 38007 ft 438 kts 296°
2026-05-05 14:45 52.99715 3.61947 38005 ft 437 kts 296°
2026-05-05 14:45 53.02635 3.53105 38015 ft 436 kts 296°
2026-05-05 14:46 53.05546 3.44261 37999 ft 436 kts 296°
2026-05-05 14:46 53.08430 3.35466 37995 ft 436 kts 296°
2026-05-05 14:47 53.10661 3.26184 37990 ft 431 kts 280°
2026-05-05 14:47 53.11946 3.16452 37986 ft 431 kts 280°
2026-05-05 14:48 53.13235 3.06715 37985 ft 431 kts 280°
2026-05-05 14:48 53.14521 2.96969 37999 ft 431 kts 280°
2026-05-05 14:49 53.15794 2.87284 37994 ft 431 kts 280°
2026-05-05 14:49 53.17066 2.77515 37992 ft 431 kts 280°
2026-05-05 14:50 53.18325 2.67742 37994 ft 431 kts 280°
2026-05-05 14:50 53.19566 2.57953 37998 ft 432 kts 280°
2026-05-05 14:51 53.20806 2.48151 38000 ft 432 kts 280°
2026-05-05 14:51 53.22039 2.38400 37999 ft 433 kts 280°
2026-05-05 14:52 53.23271 2.28575 38014 ft 433 kts 280°
2026-05-05 14:52 53.24498 2.18737 38012 ft 433 kts 280°
2026-05-05 14:53 53.25714 2.08904 38011 ft 432 kts 280°
2026-05-05 14:53 53.26910 1.99127 38016 ft 432 kts 280°
2026-05-05 14:54 53.28105 1.89277 38015 ft 433 kts 280°
2026-05-05 14:54 53.29291 1.79423 38013 ft 433 kts 280°
2026-05-05 14:55 53.30475 1.69557 38012 ft 433 kts 280°
2026-05-05 14:55 53.31647 1.59746 38012 ft 433 kts 279°
2026-05-05 14:56 53.32819 1.49865 38017 ft 433 kts 281°
2026-05-05 14:56 53.34185 1.40038 38013 ft 434 kts 283°
2026-05-05 14:57 53.35675 1.30238 38012 ft 434 kts 283°
2026-05-05 14:57 53.37136 1.20423 38016 ft 435 kts 282°
2026-05-05 14:58 53.38534 1.10643 38016 ft 435 kts 282°
2026-05-05 14:58 53.39925 1.00784 38017 ft 435 kts 282°
2026-05-05 14:59 53.41315 0.90924 38015 ft 435 kts 282°
2026-05-05 14:59 53.42700 0.81049 38012 ft 435 kts 282°
2026-05-05 15:00 53.43846 0.72833 38009 ft 435 kts 282°
2026-05-05 15:00 53.45442 0.61345 38014 ft 435 kts 282°
2026-05-05 15:01 53.46802 0.51447 38015 ft 435 kts 282°
2026-05-05 15:01 53.48148 0.41547 38015 ft 435 kts 281°
2026-05-05 15:02 53.49485 0.31722 38013 ft 434 kts 281°
2026-05-05 15:02 53.50820 0.21838 38011 ft 434 kts 282°
2026-05-05 15:03 53.52145 0.11956 38018 ft 434 kts 281°
2026-05-05 15:03 53.53459 0.02058 38015 ft 434 kts 281°
2026-05-05 15:04 53.54767 -0.07835 38040 ft 433 kts 282°
2026-05-05 15:04 53.56062 -0.17665 38038 ft 433 kts 282°
2026-05-05 15:05 53.57997 -0.32535 37674 ft 434 kts 281°
2026-05-05 15:05 53.58635 -0.37495 37396 ft 434 kts 281°
2026-05-05 15:06 53.59270 -0.42458 37120 ft 434 kts 281°
2026-05-05 15:06 53.59905 -0.47432 36864 ft 434 kts 281°
2026-05-05 15:06 53.60532 -0.52345 36607 ft 435 kts 281°
2026-05-05 15:06 53.61166 -0.57330 36343 ft 435 kts 281°
2026-05-05 15:07 53.61798 -0.62315 36085 ft 436 kts 281°
2026-05-05 15:07 53.62430 -0.67306 35829 ft 436 kts 281°
2026-05-05 15:07 53.63058 -0.72288 35576 ft 436 kts 281°
2026-05-05 15:07 53.63689 -0.77301 35327 ft 437 kts 281°
2026-05-05 15:08 53.64320 -0.82320 35080 ft 439 kts 281°
2026-05-05 15:08 53.64737 -0.85653 34913 ft 440 kts 281°
2026-05-05 15:08 53.65367 -0.90705 34668 ft 440 kts 281°
2026-05-05 15:08 53.65994 -0.95753 34429 ft 441 kts 281°
2026-05-05 15:09 53.66822 -1.02469 34111 ft 442 kts 281°
2026-05-05 15:09 53.67442 -1.07532 33855 ft 440 kts 280°
2026-05-05 15:09 53.68058 -1.12577 33578 ft 438 kts 281°
2026-05-05 15:09 53.68673 -1.17601 33302 ft 436 kts 281°
2026-05-05 15:10 53.69077 -1.20920 33125 ft 435 kts 281°
2026-05-05 15:10 53.69681 -1.25898 32852 ft 433 kts 280°
2026-05-05 15:10 53.70282 -1.30865 32587 ft 430 kts 280°
2026-05-05 15:10 53.71028 -1.35730 32212 ft 427 kts 289°
2026-05-05 15:11 53.72283 -1.40251 31677 ft 424 kts 301°
2026-05-05 15:11 53.74022 -1.44247 31167 ft 421 kts 311°
2026-05-05 15:11 53.76158 -1.47590 30705 ft 418 kts 321°
2026-05-05 15:11 53.78589 -1.50261 30210 ft 415 kts 327°
2026-05-05 15:12 53.81056 -1.52771 29630 ft 412 kts 327°
2026-05-05 15:12 53.83466 -1.55232 29059 ft 409 kts 327°
2026-05-05 15:12 53.85888 -1.57714 28504 ft 405 kts 327°
2026-05-05 15:12 53.88285 -1.60171 27963 ft 401 kts 327°
2026-05-05 15:13 53.91454 -1.63425 27239 ft 396 kts 326°
2026-05-05 15:13 53.93010 -1.65023 26898 ft 394 kts 326°
2026-05-05 15:13 53.95338 -1.67419 26388 ft 390 kts 326°
2026-05-05 15:13 53.97649 -1.69801 25865 ft 387 kts 326°
2026-05-05 15:14 53.99940 -1.72171 25406 ft 383 kts 326°
2026-05-05 15:14 54.02207 -1.74518 24923 ft 380 kts 326°
2026-05-05 15:14 54.04454 -1.76844 24444 ft 377 kts 325°
2026-05-05 15:14 54.06654 -1.79120 23980 ft 374 kts 325°
2026-05-05 15:15 54.08865 -1.81408 23501 ft 371 kts 325°
2026-05-05 15:15 54.11087 -1.83614 22958 ft 369 kts 331°
2026-05-05 15:15 54.13500 -1.85116 22465 ft 371 kts 343°
2026-05-05 15:15 54.16055 -1.85697 21990 ft 372 kts 356°
2026-05-05 15:16 54.18632 -1.85324 21510 ft 373 kts
2026-05-05 15:16 54.21174 -1.84510 21038 ft 370 kts
2026-05-05 15:16 54.23690 -1.83709 20600 ft 368 kts
2026-05-05 15:16 54.26167 -1.82929 20134 ft 366 kts
2026-05-05 15:17 54.28661 -1.82147 19706 ft 363 kts
2026-05-05 15:17 54.31138 -1.81375 19291 ft 360 kts
2026-05-05 15:17 54.33594 -1.80609 18880 ft 358 kts
2026-05-05 15:17 54.36031 -1.79845 18480 ft 355 kts
2026-05-05 15:18 54.38452 -1.79082 18045 ft 352 kts
2026-05-05 15:18 54.40854 -1.78325 17585 ft 350 kts
2026-05-05 15:18 54.43241 -1.77572 17133 ft 348 kts
2026-05-05 15:18 54.45615 -1.76821 16686 ft 346 kts
2026-05-05 15:19 54.47977 -1.76070 16248 ft 344 kts
2026-05-05 15:19 54.50297 -1.75333 15829 ft 343 kts
2026-05-05 15:19 54.52640 -1.74629 15392 ft 340 kts
2026-05-05 15:19 54.54947 -1.74922 14970 ft 329 kts 340°
2026-05-05 15:20 54.57006 -1.76416 14546 ft 316 kts 331°
2026-05-05 15:20 54.58945 -1.78085 14133 ft 308 kts 330°
2026-05-05 15:20 54.60834 -1.79734 13711 ft 301 kts 330°
2026-05-05 15:20 54.62681 -1.81349 13253 ft 295 kts 330°
2026-05-05 15:21 54.64500 -1.82937 12753 ft 291 kts 330°
2026-05-05 15:21 54.66297 -1.84520 12207 ft 289 kts 330°
2026-05-05 15:21 54.68053 -1.86082 11678 ft 287 kts 330°
2026-05-05 15:21 54.69791 -1.87644 11408 ft 275 kts 330°
2026-05-05 15:22 54.71453 -1.89132 11148 ft 264 kts 330°
2026-05-05 15:22 54.73052 -1.90557 10895 ft 254 kts 330°
2026-05-05 15:22 54.74596 -1.91930 10650 ft 247 kts 330°
2026-05-05 15:22 54.76121 -1.93289 10217 ft 246 kts 331°
2026-05-05 15:23 54.77639 -1.94650 9765 ft 245 kts 330°
2026-05-05 15:23 54.79143 -1.96022 9274 ft 243 kts 330°
2026-05-05 15:23 54.80633 -1.97380 8794 ft 241 kts 330°
2026-05-05 15:23 54.82107 -1.98726 8316 ft 238 kts 330°
2026-05-05 15:24 54.83547 -2.00033 7862 ft 236 kts 330°
2026-05-05 15:24 54.84987 -2.01365 7396 ft 233 kts 330°
2026-05-05 15:24 54.86413 -2.02678 6948 ft 231 kts 334°
2026-05-05 15:24 54.87967 -2.03260 6507 ft 230 kts 355°
2026-05-05 15:25 54.89569 -2.03237 6038 ft 230 kts
2026-05-05 15:25 54.91169 -2.03156 5563 ft 229 kts
2026-05-05 15:25 54.92754 -2.02982 5093 ft 228 kts 11°
2026-05-05 15:25 54.94218 -2.01976 4634 ft 227 kts 31°
2026-05-05 15:26 54.95372 -2.00119 4143 ft 228 kts 52°
2026-05-05 15:26 54.96102 -1.97744 3784 ft 223 kts 62°
2026-05-05 15:26 54.96749 -1.95330 3477 ft 216 kts 61°
2026-05-05 15:26 54.97372 -1.93011 3180 ft 206 kts 62°
2026-05-05 15:27 54.97950 -1.90853 2904 ft 187 kts 62°
2026-05-05 15:27 54.98468 -1.88919 2669 ft 166 kts 62°
2026-05-05 15:27 54.98930 -1.87195 2483 ft 148 kts 60°
2026-05-05 15:27 54.99340 -1.85666 2272 ft 134 kts 60°
2026-05-05 15:28 54.99718 -1.84253 2089 ft 125 kts 60°
2026-05-05 15:28 55.00084 -1.82890 1920 ft 123 kts 60°
2026-05-05 15:28 55.00450 -1.81523 1750 ft 124 kts 61°
2026-05-05 15:28 55.00810 -1.80184 1575 ft 123 kts 59°
2026-05-05 15:29 55.01169 -1.78830 1421 ft 122 kts 59°
2026-05-05 15:29 55.01528 -1.77487 1233 ft 123 kts 59°
2026-05-05 15:29 55.01888 -1.76141 1015 ft 122 kts 60°
2026-05-05 15:29 55.02244 -1.74791 839 ft 124 kts 63°
2026-05-05 15:30 55.02607 -1.73432 664 ft 122 kts 63°
2026-05-05 15:30 55.02962 -1.72088 521 ft 123 kts 62°
2026-05-05 15:30 55.03320 -1.70748 351 ft 121 kts 62°
2026-05-05 15:30 55.03660 -1.69491 258 ft 101 kts 64°
2026-05-05 15:31 55.03879 -1.68657 250 ft 52 kts 66°
2026-05-05 15:31 55.03991 -1.68230 248 ft 33 kts 65°
2026-05-05 15:31 55.04079 -1.67898 247 ft 27 kts 65°
2026-05-05 15:31 55.04151 -1.67631 245 ft 22 kts 65°
2026-05-05 15:32 55.04202 -1.67439 243 ft 9 kts 65°
2026-05-05 15:32 55.04247 -1.67356 241 ft 9 kts 13°
2026-05-05 15:32 55.04307 -1.67387 241 ft 8 kts 329°
2026-05-05 15:32 55.04329 -1.67468 242 ft 7 kts 275°
2026-05-05 15:33 55.04332 -1.67536 242 ft 4 kts 274°
2026-05-05 15:33 55.04334 -1.67577 243 ft 4 kts 274°
2026-05-05 15:33 55.04326 -1.67651 244 ft 6 kts 249°
2026-05-05 15:33 55.04313 -1.67704 245 ft 4 kts 246°
2026-05-05 15:34 55.04281 -1.67826 246 ft 17 kts 245°
2026-05-05 15:34 55.04233 -1.68004 247 ft 15 kts 245°
2026-05-05 15:34 55.04190 -1.68167 248 ft 14 kts 245°
2026-05-05 15:34 55.04149 -1.68323 248 ft 17 kts 245°
2026-05-05 15:35 55.04092 -1.68535 249 ft 19 kts 245°
2026-05-05 15:35 55.04040 -1.68732 250 ft 17 kts 245°
2026-05-05 15:35 55.03993 -1.68909 251 ft 15 kts 245°
2026-05-05 15:35 55.03952 -1.69066 252 ft 13 kts 245°
2026-05-05 15:36 55.03909 -1.69226 254 ft 16 kts 245°
2026-05-05 15:36 55.03866 -1.69389 255 ft 14 kts 245°
2026-05-05 15:36 55.03826 -1.69548 257 ft 15 kts 249°
2026-05-05 15:36 55.03798 -1.69711 258 ft 13 kts 256°
2026-05-05 15:37 55.03782 -1.69852 259 ft 11 kts 261°
2026-05-05 15:37 55.03773 -1.70035 261 ft 16 kts 268°
2026-05-05 15:37 55.03776 -1.70211 264 ft 13 kts 274°
2026-05-05 15:37 55.03781 -1.70340 267 ft 8 kts 274°
2026-05-05 15:38 55.03790 -1.70427 267 ft 7 kts 284°
2026-05-05 15:38 55.03799 -1.70507 267 ft 7 kts 276°
2026-05-05 15:38 55.03802 -1.70583 267 ft 6 kts 274°
2026-05-05 15:38 55.03804 -1.70639 267 ft 4 kts 274°
2026-05-05 15:39 55.03790 -1.70663 267 ft 4 kts 197°
2026-05-05 15:39 55.03752 -1.70669 267 ft 4 kts 184°
2026-05-05 15:39 55.03733 -1.70671 267 ft 2 kts 183°
2026-05-05 15:39 55.03732 -1.70671 267 ft 0 kts 183°